Time,TemperatureF,DewpointF,PressureIn,WindDirection,WindDirectionDegrees,WindSpeedMPH,WindSpeedGustMPH,Humidity,HourlyPrecipIn,Conditions,Clouds,dailyrainin,SoftwareType,DateUTC
2013-01-24 00:04:00,48.1,47.6,30.11,North,32767,0.0,3.0,98,0.00,,,0.00,Wunderground v.1.15,2013-01-24 08:04:00,
2013-01-24 00:05:00,48.1,47.6,30.11,North,359,0.0,3.0,98,0.00,,,0.00,Wunderground v.1.15,2013-01-24 08:05:00,
2013-01-24 00:10:00,48.2,47.7,30.11,North,359,0.0,3.0,98,0.00,,,0.01,Wunderground v.1.15,2013-01-24 08:10:00,
2013-01-24 00:11:00,48.2,47.9,30.11,North,359,0.0,3.0,99,0.00,,,0.01,Wunderground v.1.15,2013-01-24 08:11:00,
2013-01-24 00:16:00,48.2,47.9,30.11,North,32767,0.0,3.0,99,0.00,,,0.01,Wunderground v.1.15,2013-01-24 08:16:00,
2013-01-24 00:20:00,48.2,47.7,30.11,North,32767,0.0,3.0,98,0.00,,,0.01,Wunderground v.1.15,2013-01-24 08:20:00,
2013-01-24 00:22:00,48.2,47.7,30.10,North,4,0.0,3.0,98,0.00,,,0.01,Wunderground v.1.15,2013-01-24 08:22:00,
2013-01-24 00:27:00,48.2,47.7,30.10,North,359,1.0,4.0,98,0.00,,,0.01,Wunderground v.1.15,2013-01-24 08:27:00,
2013-01-24 00:28:00,48.2,47.7,30.10,North,359,1.0,4.0,98,0.00,,,0.01,Wunderground v.1.15,2013-01-24 08:28:00,
2013-01-24 00:33:00,48.2,47.7,30.11,North,359,1.0,3.0,98,0.00,,,0.01,Wunderground v.1.15,2013-01-24 08:33:00,
2013-01-24 00:35:00,48.2,47.7,30.11,North,32767,1.0,3.0,98,0.00,,,0.01,Wunderground v.1.15,2013-01-24 08:35:00,
2013-01-24 00:39:00,48.1,47.6,30.10,North,4,0.0,3.0,98,0.00,,,0.01,Wunderground v.1.15,2013-01-24 08:39:00,
2013-01-24 00:41:00,48.1,47.6,30.10,North,32767,0.0,3.0,98,0.00,,,0.01,Wunderground v.1.15,2013-01-24 08:41:00,
2013-01-24 00:45:00,48.1,47.6,30.10,North,359,0.0,3.0,98,0.00,,,0.01,Wunderground v.1.15,2013-01-24 08:45:00,
2013-01-24 00:47:00,48.1,47.8,30.10,North,359,0.0,3.0,99,0.00,,,0.01,Wunderground v.1.15,2013-01-24 08:47:00,
2013-01-24 00:50:00,48.1,47.8,30.09,North,4,1.0,3.0,99,0.00,,,0.01,Wunderground v.1.15,2013-01-24 08:50:00,
2013-01-24 00:52:00,48.2,47.9,30.10,North,359,1.0,3.0,99,0.00,,,0.01,Wunderground v.1.15,2013-01-24 08:52:00,
2013-01-24 00:58:00,48.2,47.9,30.10,North,32767,1.0,3.0,99,0.00,,,0.01,Wunderground v.1.15,2013-01-24 08:58:00,
2013-01-24 01:00:00,48.2,47.9,30.10,North,359,0.0,3.0,99,0.00,,,0.01,Wunderground v.1.15,2013-01-24 09:00:00,
2013-01-24 01:06:00,48.2,47.9,30.10,North,359,0.0,3.0,99,0.00,,,0.01,Wunderground v.1.15,2013-01-24 09:06:00,
2013-01-24 01:09:00,48.2,47.9,30.10,North,32767,0.0,3.0,99,0.00,,,0.01,Wunderground v.1.15,2013-01-24 09:09:00,
2013-01-24 01:11:00,48.2,47.9,30.10,North,32767,0.0,3.0,99,0.00,,,0.01,Wunderground v.1.15,2013-01-24 09:11:00,
2013-01-24 01:17:00,48.1,47.8,30.10,North,359,0.0,3.0,99,0.00,,,0.01,Wunderground v.1.15,2013-01-24 09:17:00,
2013-01-24 01:23:00,48.1,47.8,30.11,North,4,1.0,3.0,99,0.00,,,0.01,Wunderground v.1.15,2013-01-24 09:23:00,
2013-01-24 01:25:00,48.1,47.8,30.11,North,32767,1.0,3.0,99,0.00,,,0.01,Wunderground v.1.15,2013-01-24 09:25:00,
2013-01-24 01:31:00,48.1,47.8,30.10,North,4,0.0,3.0,99,0.00,,,0.01,Wunderground v.1.15,2013-01-24 09:31:00,
2013-01-24 01:32:00,48.1,47.8,30.11,North,4,0.0,3.0,99,0.00,,,0.01,Wunderground v.1.15,2013-01-24 09:32:00,
2013-01-24 01:37:00,48.1,47.8,30.10,North,359,0.0,3.0,99,0.00,,,0.01,Wunderground v.1.15,2013-01-24 09:37:00,
2013-01-24 01:38:00,48.1,47.8,30.10,North,4,0.0,3.0,99,0.00,,,0.01,Wunderground v.1.15,2013-01-24 09:38:00,
2013-01-24 01:43:00,48.1,47.8,30.10,North,359,0.0,3.0,99,0.00,,,0.01,Wunderground v.1.15,2013-01-24 09:43:00,
2013-01-24 01:45:00,48.1,47.8,30.09,North,359,0.0,3.0,99,0.00,,,0.01,Wunderground v.1.15,2013-01-24 09:45:00,
2013-01-24 01:51:00,48.1,47.8,30.10,North,32767,0.0,3.0,99,0.00,,,0.01,Wunderground v.1.15,2013-01-24 09:51:00,
2013-01-24 01:52:00,48.1,47.8,30.10,North,359,0.0,3.0,99,0.00,,,0.01,Wunderground v.1.15,2013-01-24 09:52:00,
2013-01-24 01:57:00,48.2,47.9,30.10,NNE,15,1.0,3.0,99,0.00,,,0.01,Wunderground v.1.15,2013-01-24 09:57:00,
2013-01-24 02:01:00,48.1,47.8,30.10,North,359,1.0,3.0,99,0.00,,,0.01,Wunderground v.1.15,2013-01-24 10:01:00,
2013-01-24 02:03:00,48.1,47.8,30.10,North,359,1.0,3.0,99,0.00,,,0.01,Wunderground v.1.15,2013-01-24 10:03:00,
2013-01-24 02:09:00,48.1,47.8,30.10,North,32767,0.0,3.0,99,0.00,,,0.01,Wunderground v.1.15,2013-01-24 10:09:00,
2013-01-24 02:11:00,48.1,47.8,30.10,North,359,0.0,3.0,99,0.00,,,0.01,Wunderground v.1.15,2013-01-24 10:11:00,
2013-01-24 02:16:00,48.2,47.9,30.10,North,32767,0.0,3.0,99,0.00,,,0.01,Wunderground v.1.15,2013-01-24 10:16:00,
2013-01-24 02:17:00,48.2,47.9,30.10,North,32767,0.0,3.0,99,0.00,,,0.01,Wunderground v.1.15,2013-01-24 10:17:00,
2013-01-24 02:22:00,48.2,47.9,30.10,North,359,0.0,3.0,99,0.00,,,0.01,Wunderground v.1.15,2013-01-24 10:22:00,
2013-01-24 02:23:00,48.2,47.9,30.10,North,4,0.0,3.0,99,0.00,,,0.01,Wunderground v.1.15,2013-01-24 10:23:00,
2013-01-24 02:28:00,48.0,47.5,30.10,North,32767,1.0,3.0,98,0.00,,,0.01,Wunderground v.1.15,2013-01-24 10:28:00,
2013-01-24 02:32:00,47.9,47.6,30.10,North,359,1.0,3.0,99,0.00,,,0.01,Wunderground v.1.15,2013-01-24 10:32:00,
2013-01-24 02:34:00,47.9,47.6,30.11,North,32767,1.0,3.0,99,0.00,,,0.01,Wunderground v.1.15,2013-01-24 10:34:00,
2013-01-24 02:37:00,47.9,47.6,30.11,North,32767,0.0,3.0,99,0.00,,,0.01,Wunderground v.1.15,2013-01-24 10:37:00,
2013-01-24 02:40:00,47.9,47.6,30.11,North,359,0.0,3.0,99,0.00,,,0.01,Wunderground v.1.15,2013-01-24 10:40:00,
2013-01-24 02:43:00,47.9,47.6,30.11,North,359,0.0,3.0,99,0.00,,,0.01,Wunderground v.1.15,2013-01-24 10:43:00,
2013-01-24 02:48:00,47.9,47.6,30.11,North,32767,0.0,3.0,99,0.00,,,0.01,Wunderground v.1.15,2013-01-24 10:48:00,
2013-01-24 02:51:00,47.9,47.6,30.10,North,359,0.0,3.0,99,0.00,,,0.01,Wunderground v.1.15,2013-01-24 10:51:00,
2013-01-24 02:54:00,47.8,47.5,30.10,North,32767,0.0,3.0,99,0.00,,,0.01,Wunderground v.1.15,2013-01-24 10:54:00,
2013-01-24 02:58:00,47.8,47.5,30.10,North,359,0.0,3.0,99,0.00,,,0.01,Wunderground v.1.15,2013-01-24 10:58:00,
2013-01-24 02:59:00,47.8,47.5,30.10,North,32767,0.0,3.0,99,0.00,,,0.01,Wunderground v.1.15,2013-01-24 10:59:00,
2013-01-24 03:04:00,47.7,47.4,30.10,North,359,0.0,3.0,99,0.00,,,0.01,Wunderground v.1.15,2013-01-24 11:04:00,
2013-01-24 03:05:00,47.8,47.5,30.10,North,4,0.0,3.0,99,0.00,,,0.01,Wunderground v.1.15,2013-01-24 11:05:00,
2013-01-24 03:10:00,47.8,47.5,30.10,North,32767,0.0,3.0,99,0.00,,,0.01,Wunderground v.1.15,2013-01-24 11:10:00,
2013-01-24 03:11:00,47.8,47.5,30.10,North,32767,0.0,3.0,99,0.00,,,0.01,Wunderground v.1.15,2013-01-24 11:11:00,
2013-01-24 03:17:00,47.8,47.5,30.10,North,359,0.0,3.0,99,0.00,,,0.01,Wunderground v.1.15,2013-01-24 11:17:00,
2013-01-24 03:18:00,47.8,47.5,30.10,North,32767,0.0,3.0,99,0.00,,,0.01,Wunderground v.1.15,2013-01-24 11:18:00,
2013-01-24 03:23:00,47.8,47.5,30.11,North,359,0.0,3.0,99,0.00,,,0.01,Wunderground v.1.15,2013-01-24 11:23:00,
2013-01-24 03:25:00,47.8,47.5,30.11,North,359,0.0,3.0,99,0.00,,,0.01,Wunderground v.1.15,2013-01-24 11:25:00,
2013-01-24 03:30:00,47.7,47.4,30.10,North,359,0.0,3.0,99,0.00,,,0.01,Wunderground v.1.15,2013-01-24 11:30:00,
2013-01-24 03:32:00,47.7,47.4,30.10,North,32767,0.0,3.0,99,0.00,,,0.01,Wunderground v.1.15,2013-01-24 11:32:00,
2013-01-24 03:37:00,47.7,47.4,30.11,North,359,0.0,3.0,99,0.00,,,0.01,Wunderground v.1.15,2013-01-24 11:37:00,
2013-01-24 03:39:00,47.7,47.4,30.11,North,359,0.0,3.0,99,0.00,,,0.01,Wunderground v.1.15,2013-01-24 11:39:00,
2013-01-24 03:41:00,47.7,47.4,30.11,North,359,0.0,3.0,99,0.00,,,0.01,Wunderground v.1.15,2013-01-24 11:41:00,
2013-01-24 03:46:00,47.7,47.4,30.10,North,4,0.0,3.0,99,0.00,,,0.01,Wunderground v.1.15,2013-01-24 11:46:00,
2013-01-24 03:48:00,47.8,47.5,30.10,North,32767,0.0,3.0,99,0.00,,,0.01,Wunderground v.1.15,2013-01-24 11:48:00,
2013-01-24 03:51:00,47.8,47.5,30.10,North,359,0.0,3.0,99,0.00,,,0.01,Wunderground v.1.15,2013-01-24 11:51:00,
2013-01-24 03:53:00,47.8,47.5,30.10,North,4,1.0,3.0,99,0.00,,,0.01,Wunderground v.1.15,2013-01-24 11:53:00,
2013-01-24 03:56:00,47.9,47.6,30.10,North,4,1.0,3.0,99,0.00,,,0.01,Wunderground v.1.15,2013-01-24 11:56:00,
2013-01-24 03:57:00,47.9,47.6,30.10,North,359,1.0,3.0,99,0.00,,,0.01,Wunderground v.1.15,2013-01-24 11:57:00,
2013-01-24 03:59:00,48.0,47.7,30.10,North,4,1.0,3.0,99,0.00,,,0.01,Wunderground v.1.15,2013-01-24 11:59:00,
2013-01-24 04:04:00,48.0,47.7,30.11,North,359,1.0,3.0,99,0.00,,,0.01,Wunderground v.1.15,2013-01-24 12:04:00,
2013-01-24 04:05:00,48.0,47.7,30.11,North,32767,1.0,3.0,99,0.00,,,0.01,Wunderground v.1.15,2013-01-24 12:05:00,
2013-01-24 04:10:00,48.0,47.7,30.11,North,359,1.0,3.0,99,0.00,,,0.01,Wunderground v.1.15,2013-01-24 12:10:00,
2013-01-24 04:11:00,48.0,47.7,30.11,North,359,1.0,3.0,99,0.00,,,0.01,Wunderground v.1.15,2013-01-24 12:11:00,
2013-01-24 04:16:00,48.0,47.7,30.11,North,359,1.0,3.0,99,0.00,,,0.01,Wunderground v.1.15,2013-01-24 12:16:00,
2013-01-24 04:17:00,48.0,47.7,30.11,North,359,1.0,3.0,99,0.00,,,0.01,Wunderground v.1.15,2013-01-24 12:17:00,
2013-01-24 04:23:00,48.0,47.7,30.11,North,4,0.0,3.0,99,0.00,,,0.01,Wunderground v.1.15,2013-01-24 12:23:00,
2013-01-24 04:25:00,48.0,47.7,30.10,North,32767,0.0,3.0,99,0.00,,,0.01,Wunderground v.1.15,2013-01-24 12:25:00,
2013-01-24 04:29:00,48.0,47.7,30.10,North,32767,1.0,3.0,99,0.00,,,0.01,Wunderground v.1.15,2013-01-24 12:29:00,
2013-01-24 04:31:00,48.0,47.7,30.11,North,359,1.0,3.0,99,0.00,,,0.01,Wunderground v.1.15,2013-01-24 12:31:00,
2013-01-24 04:36:00,48.0,47.7,30.11,North,4,1.0,3.0,99,0.00,,,0.01,Wunderground v.1.15,2013-01-24 12:36:00,
2013-01-24 04:38:00,48.0,47.7,30.11,North,4,0.0,3.0,99,0.00,,,0.01,Wunderground v.1.15,2013-01-24 12:38:00,
2013-01-24 04:39:00,48.0,47.7,30.11,North,4,0.0,3.0,99,0.00,,,0.01,Wunderground v.1.15,2013-01-24 12:39:00,
2013-01-24 04:41:00,48.0,47.7,30.11,North,359,0.0,3.0,99,0.00,,,0.01,Wunderground v.1.15,2013-01-24 12:41:00,
2013-01-24 04:42:00,48.1,47.8,30.11,North,32767,0.0,3.0,99,0.00,,,0.01,Wunderground v.1.15,2013-01-24 12:42:00,
2013-01-24 04:45:00,48.1,47.8,30.11,North,4,0.0,3.0,99,0.00,,,0.01,Wunderground v.1.15,2013-01-24 12:45:00,
2013-01-24 04:47:00,48.1,47.8,30.11,North,4,0.0,3.0,99,0.00,,,0.01,Wunderground v.1.15,2013-01-24 12:47:00,
2013-01-24 04:48:00,48.1,47.8,30.11,North,32767,1.0,3.0,99,0.00,,,0.01,Wunderground v.1.15,2013-01-24 12:48:00,
2013-01-24 04:49:00,48.1,47.8,30.11,North,32767,1.0,3.0,99,0.00,,,0.01,Wunderground v.1.15,2013-01-24 12:49:00,
2013-01-24 04:54:00,48.1,47.8,30.11,North,359,1.0,3.0,99,0.00,,,0.01,Wunderground v.1.15,2013-01-24 12:54:00,
2013-01-24 04:55:00,48.1,47.8,30.11,North,32767,1.0,3.0,99,0.00,,,0.01,Wunderground v.1.15,2013-01-24 12:55:00,
2013-01-24 04:58:00,48.1,47.8,30.11,North,32767,1.0,3.0,99,0.00,,,0.01,Wunderground v.1.15,2013-01-24 12:58:00,
2013-01-24 05:00:00,48.1,47.8,30.11,North,32767,1.0,1.0,99,0.00,,,0.01,Wunderground v.1.15,2013-01-24 13:00:00,
2013-01-24 05:01:00,48.1,47.8,30.11,North,32767,1.0,3.0,99,0.00,,,0.01,Wunderground v.1.15,2013-01-24 13:01:00,
2013-01-24 05:04:00,48.1,47.8,30.11,North,32767,1.0,3.0,99,0.00,,,0.01,Wunderground v.1.15,2013-01-24 13:04:00,
2013-01-24 05:06:00,48.1,47.8,30.11,North,32767,1.0,3.0,99,0.00,,,0.01,Wunderground v.1.15,2013-01-24 13:06:00,
2013-01-24 05:09:00,48.1,47.8,30.11,North,359,1.0,3.0,99,0.00,,,0.01,Wunderground v.1.15,2013-01-24 13:09:00,
2013-01-24 05:10:00,48.1,47.8,30.11,North,359,0.0,3.0,99,0.00,,,0.01,Wunderground v.1.15,2013-01-24 13:10:00,
2013-01-24 05:15:00,48.2,47.9,30.11,North,359,1.0,3.0,99,0.00,,,0.01,Wunderground v.1.15,2013-01-24 13:15:00,
2013-01-24 05:17:00,48.2,47.9,30.11,North,32767,1.0,3.0,99,0.00,,,0.01,Wunderground v.1.15,2013-01-24 13:17:00,
2013-01-24 05:18:00,48.2,47.9,30.11,North,32767,1.0,3.0,99,0.00,,,0.01,Wunderground v.1.15,2013-01-24 13:18:00,
2013-01-24 05:20:00,48.2,47.9,30.11,North,32767,0.0,3.0,99,0.00,,,0.01,Wunderground v.1.15,2013-01-24 13:20:00,
2013-01-24 05:22:00,48.2,47.9,30.11,North,4,0.0,3.0,99,0.00,,,0.01,Wunderground v.1.15,2013-01-24 13:22:00,
2013-01-24 05:25:00,48.2,47.9,30.11,North,32767,0.0,3.0,99,0.00,,,0.01,Wunderground v.1.15,2013-01-24 13:25:00,
2013-01-24 05:26:00,48.2,47.9,30.11,North,359,0.0,3.0,99,0.00,,,0.01,Wunderground v.1.15,2013-01-24 13:26:00,
2013-01-24 05:32:00,48.2,47.9,30.11,North,32767,1.0,3.0,99,0.00,,,0.01,Wunderground v.1.15,2013-01-24 13:32:00,
2013-01-24 05:33:00,48.2,47.9,30.11,North,359,1.0,3.0,99,0.00,,,0.01,Wunderground v.1.15,2013-01-24 13:33:00,
2013-01-24 05:34:00,48.2,47.9,30.11,North,359,1.0,3.0,99,0.00,,,0.01,Wunderground v.1.15,2013-01-24 13:34:00,
2013-01-24 05:37:00,48.2,47.9,30.11,North,32767,1.0,3.0,99,0.00,,,0.01,Wunderground v.1.15,2013-01-24 13:37:00,
2013-01-24 05:39:00,48.2,47.9,30.11,North,32767,1.0,3.0,99,0.00,,,0.01,Wunderground v.1.15,2013-01-24 13:39:00,
2013-01-24 05:41:00,48.3,48.0,30.11,North,359,1.0,3.0,99,0.00,,,0.01,Wunderground v.1.15,2013-01-24 13:41:00,
2013-01-24 05:45:00,48.3,48.0,30.11,North,359,0.0,3.0,99,0.00,,,0.01,Wunderground v.1.15,2013-01-24 13:45:00,
2013-01-24 05:46:00,48.3,48.0,30.11,North,32767,0.0,3.0,99,0.00,,,0.01,Wunderground v.1.15,2013-01-24 13:46:00,
2013-01-24 05:49:00,48.2,47.9,30.11,North,359,0.0,3.0,99,0.00,,,0.01,Wunderground v.1.15,2013-01-24 13:49:00,
2013-01-24 05:52:00,48.2,47.9,30.11,North,359,0.0,3.0,99,0.00,,,0.01,Wunderground v.1.15,2013-01-24 13:52:00,
2013-01-24 05:53:00,48.2,47.9,30.11,North,4,0.0,3.0,99,0.00,,,0.01,Wunderground v.1.15,2013-01-24 13:53:00,
2013-01-24 05:58:00,48.2,47.9,30.11,North,4,0.0,3.0,99,0.00,,,0.01,Wunderground v.1.15,2013-01-24 13:58:00,
2013-01-24 05:59:00,48.2,47.9,30.11,North,359,0.0,3.0,99,0.00,,,0.01,Wunderground v.1.15,2013-01-24 13:59:00,
2013-01-24 06:02:00,48.1,47.8,30.12,North,32767,0.0,3.0,99,0.00,,,0.01,Wunderground v.1.15,2013-01-24 14:02:00,
2013-01-24 06:03:00,48.1,47.8,30.12,North,359,0.0,3.0,99,0.00,,,0.01,Wunderground v.1.15,2013-01-24 14:03:00,
2013-01-24 06:04:00,48.0,47.7,30.12,North,359,0.0,3.0,99,0.00,,,0.01,Wunderground v.1.15,2013-01-24 14:04:00,
2013-01-24 06:05:00,48.0,47.7,30.12,North,359,0.0,3.0,99,0.00,,,0.01,Wunderground v.1.15,2013-01-24 14:05:00,
2013-01-24 06:08:00,48.0,47.7,30.12,North,359,0.0,3.0,99,0.00,,,0.01,Wunderground v.1.15,2013-01-24 14:08:00,
2013-01-24 06:10:00,48.0,47.7,30.12,North,32767,0.0,3.0,99,0.00,,,0.01,Wunderground v.1.15,2013-01-24 14:10:00,
2013-01-24 06:12:00,48.0,47.7,30.12,North,359,0.0,3.0,99,0.00,,,0.01,Wunderground v.1.15,2013-01-24 14:12:00,
2013-01-24 06:14:00,48.0,47.7,30.12,North,359,0.0,3.0,99,0.00,,,0.01,Wunderground v.1.15,2013-01-24 14:14:00,
2013-01-24 06:18:00,48.0,47.7,30.12,North,32767,0.0,3.0,99,0.00,,,0.01,Wunderground v.1.15,2013-01-24 14:18:00,
2013-01-24 06:20:00,48.0,47.7,30.12,NNE,17,0.0,3.0,99,0.00,,,0.01,Wunderground v.1.15,2013-01-24 14:20:00,
2013-01-24 06:22:00,48.0,47.7,30.12,North,32767,0.0,3.0,99,0.00,,,0.01,Wunderground v.1.15,2013-01-24 14:22:00,
2013-01-24 06:24:00,48.1,47.8,30.12,North,359,0.0,3.0,99,0.00,,,0.01,Wunderground v.1.15,2013-01-24 14:24:00,
2013-01-24 06:28:00,48.1,47.8,30.13,North,359,0.0,3.0,99,0.00,,,0.01,Wunderground v.1.15,2013-01-24 14:28:00,
2013-01-24 06:30:00,48.1,47.8,30.13,North,32767,0.0,3.0,99,0.00,,,0.01,Wunderground v.1.15,2013-01-24 14:30:00,
2013-01-24 06:32:00,48.1,47.8,30.13,North,32767,0.0,3.0,99,0.00,,,0.01,Wunderground v.1.15,2013-01-24 14:32:00,
2013-01-24 06:38:00,48.2,47.9,30.13,North,359,0.0,3.0,99,0.00,,,0.01,Wunderground v.1.15,2013-01-24 14:38:00,
2013-01-24 06:39:00,48.2,47.9,30.13,North,32767,0.0,3.0,99,0.00,,,0.01,Wunderground v.1.15,2013-01-24 14:39:00,
2013-01-24 06:43:00,48.2,47.9,30.13,North,32767,0.0,3.0,99,0.00,,,0.01,Wunderground v.1.15,2013-01-24 14:43:00,
2013-01-24 06:45:00,48.2,47.9,30.13,North,4,0.0,3.0,99,0.00,,,0.01,Wunderground v.1.15,2013-01-24 14:45:00,
2013-01-24 06:50:00,48.2,47.9,30.13,North,4,0.0,3.0,99,0.00,,,0.01,Wunderground v.1.15,2013-01-24 14:50:00,
2013-01-24 06:51:00,48.2,47.9,30.13,North,32767,0.0,3.0,99,0.00,,,0.01,Wunderground v.1.15,2013-01-24 14:51:00,
2013-01-24 06:52:00,48.2,47.9,30.13,North,359,0.0,3.0,99,0.00,,,0.01,Wunderground v.1.15,2013-01-24 14:52:00,
2013-01-24 06:53:00,48.2,47.9,30.13,North,359,0.0,3.0,99,0.00,,,0.01,Wunderground v.1.15,2013-01-24 14:53:00,
2013-01-24 06:56:00,48.2,47.9,30.13,North,32767,0.0,3.0,99,0.00,,,0.01,Wunderground v.1.15,2013-01-24 14:56:00,
2013-01-24 07:00:00,48.1,47.8,30.13,North,32767,1.0,1.0,99,0.00,,,0.01,Wunderground v.1.15,2013-01-24 15:00:00,
2013-01-24 07:02:00,48.1,47.8,30.13,North,359,1.0,3.0,99,0.00,,,0.01,Wunderground v.1.15,2013-01-24 15:02:00,
2013-01-24 07:06:00,48.1,47.8,30.14,North,359,0.0,3.0,99,0.00,,,0.01,Wunderground v.1.15,2013-01-24 15:06:00,
2013-01-24 07:10:00,48.2,47.9,30.14,North,32767,0.0,3.0,99,0.00,,,0.01,Wunderground v.1.15,2013-01-24 15:10:00,
2013-01-24 07:12:00,48.2,47.9,30.13,North,32767,0.0,3.0,99,0.00,,,0.01,Wunderground v.1.15,2013-01-24 15:12:00,
2013-01-24 07:16:00,48.2,47.9,30.13,North,359,0.0,3.0,99,0.00,,,0.01,Wunderground v.1.15,2013-01-24 15:16:00,
2013-01-24 07:19:00,48.2,47.9,30.13,North,32767,0.0,3.0,99,0.00,,,0.01,Wunderground v.1.15,2013-01-24 15:19:00,
2013-01-24 07:22:00,48.3,48.0,30.13,North,359,0.0,3.0,99,0.00,,,0.01,Wunderground v.1.15,2013-01-24 15:22:00,
2013-01-24 07:23:00,48.3,48.0,30.13,North,32767,0.0,3.0,99,0.00,,,0.01,Wunderground v.1.15,2013-01-24 15:23:00,
2013-01-24 07:25:00,48.3,48.0,30.13,North,4,0.0,3.0,99,0.00,,,0.01,Wunderground v.1.15,2013-01-24 15:25:00,
2013-01-24 07:31:00,48.3,48.0,30.13,North,4,0.0,3.0,99,0.00,,,0.01,Wunderground v.1.15,2013-01-24 15:31:00,
2013-01-24 07:32:00,48.3,48.0,30.13,North,32767,0.0,3.0,99,0.00,,,0.01,Wunderground v.1.15,2013-01-24 15:32:00,
2013-01-24 07:35:00,48.4,48.1,30.13,North,32767,0.0,3.0,99,0.00,,,0.01,Wunderground v.1.15,2013-01-24 15:35:00,
2013-01-24 07:36:00,48.3,48.0,30.13,North,359,0.0,3.0,99,0.00,,,0.01,Wunderground v.1.15,2013-01-24 15:36:00,
2013-01-24 07:37:00,48.4,48.1,30.13,North,359,0.0,3.0,99,0.00,,,0.01,Wunderground v.1.15,2013-01-24 15:37:00,
2013-01-24 07:38:00,48.4,48.1,30.13,North,32767,0.0,3.0,99,0.00,,,0.01,Wunderground v.1.15,2013-01-24 15:38:00,
2013-01-24 07:44:00,48.5,48.2,30.13,North,359,0.0,3.0,99,0.00,,,0.01,Wunderground v.1.15,2013-01-24 15:44:00,
2013-01-24 07:45:00,48.5,48.2,30.13,North,32767,0.0,3.0,99,0.00,,,0.01,Wunderground v.1.15,2013-01-24 15:45:00,
2013-01-24 07:47:00,48.5,48.2,30.13,North,32767,0.0,3.0,99,0.00,,,0.01,Wunderground v.1.15,2013-01-24 15:47:00,
2013-01-24 07:49:00,48.4,48.1,30.13,North,32767,0.0,3.0,99,0.00,,,0.01,Wunderground v.1.15,2013-01-24 15:49:00,
2013-01-24 07:52:00,48.3,48.0,30.13,North,359,1.0,3.0,99,0.00,,,0.01,Wunderground v.1.15,2013-01-24 15:52:00,
2013-01-24 07:53:00,48.3,48.0,30.13,North,32767,1.0,3.0,99,0.00,,,0.01,Wunderground v.1.15,2013-01-24 15:53:00,
2013-01-24 07:57:00,48.3,48.0,30.13,North,4,1.0,3.0,99,0.00,,,0.01,Wunderground v.1.15,2013-01-24 15:57:00,
2013-01-24 07:58:00,48.3,48.0,30.13,North,32767,1.0,3.0,99,0.00,,,0.01,Wunderground v.1.15,2013-01-24 15:58:00,
2013-01-24 08:01:00,48.3,48.0,30.13,North,4,0.0,3.0,99,0.00,,,0.01,Wunderground v.1.15,2013-01-24 16:01:00,
2013-01-24 08:03:00,48.4,48.1,30.13,North,359,0.0,3.0,99,0.00,,,0.01,Wunderground v.1.15,2013-01-24 16:03:00,
2013-01-24 08:04:00,48.4,48.1,30.13,North,4,0.0,3.0,99,0.00,,,0.01,Wunderground v.1.15,2013-01-24 16:04:00,
2013-01-24 08:08:00,48.4,48.1,30.13,North,359,0.0,3.0,99,0.00,,,0.01,Wunderground v.1.15,2013-01-24 16:08:00,
2013-01-24 08:09:00,48.5,48.2,30.13,North,32767,0.0,3.0,99,0.00,,,0.01,Wunderground v.1.15,2013-01-24 16:09:00,
2013-01-24 08:12:00,48.5,48.2,30.13,North,349,0.0,3.0,99,0.00,,,0.01,Wunderground v.1.15,2013-01-24 16:12:00,
2013-01-24 08:15:00,48.4,48.1,30.13,NE,37,0.0,3.0,99,0.00,,,0.01,Wunderground v.1.15,2013-01-24 16:15:00,
2013-01-24 08:18:00,48.4,48.1,30.13,NE,37,0.0,3.0,99,0.00,,,0.01,Wunderground v.1.15,2013-01-24 16:18:00,
2013-01-24 08:21:00,48.4,48.1,30.13,NE,39,0.0,3.0,99,0.00,,,0.01,Wunderground v.1.15,2013-01-24 16:21:00,
2013-01-24 08:24:00,48.3,48.0,30.13,NE,37,0.0,3.0,99,0.00,,,0.01,Wunderground v.1.15,2013-01-24 16:24:00,
2013-01-24 08:25:00,48.3,48.0,30.14,NE,39,0.0,3.0,99,0.00,,,0.01,Wunderground v.1.15,2013-01-24 16:25:00,
2013-01-24 08:30:00,48.2,47.9,30.14,NE,39,0.0,3.0,99,0.00,,,0.01,Wunderground v.1.15,2013-01-24 16:30:00,
2013-01-24 08:31:00,48.3,48.0,30.14,NE,38,0.0,3.0,99,0.00,,,0.01,Wunderground v.1.15,2013-01-24 16:31:00,
2013-01-24 08:37:00,48.5,48.2,30.14,NE,38,0.0,3.0,99,0.00,,,0.01,Wunderground v.1.15,2013-01-24 16:37:00,
2013-01-24 08:39:00,48.5,48.2,30.14,NE,37,0.0,3.0,99,0.00,,,0.01,Wunderground v.1.15,2013-01-24 16:39:00,
2013-01-24 08:40:00,48.6,48.3,30.14,NE,40,0.0,3.0,99,0.00,,,0.01,Wunderground v.1.15,2013-01-24 16:40:00,
2013-01-24 08:41:00,48.6,48.3,30.14,NE,39,0.0,3.0,99,0.00,,,0.01,Wunderground v.1.15,2013-01-24 16:41:00,
2013-01-24 08:42:00,48.7,48.4,30.14,NE,40,0.0,3.0,99,0.00,,,0.01,Wunderground v.1.15,2013-01-24 16:42:00,
2013-01-24 08:48:00,48.8,48.5,30.15,NE,39,0.0,3.0,99,0.00,,,0.01,Wunderground v.1.15,2013-01-24 16:48:00,
2013-01-24 08:49:00,48.9,48.6,30.15,NE,37,0.0,3.0,99,0.00,,,0.01,Wunderground v.1.15,2013-01-24 16:49:00,
2013-01-24 08:53:00,48.9,48.6,30.15,NE,38,0.0,3.0,99,0.00,,,0.01,Wunderground v.1.15,2013-01-24 16:53:00,
2013-01-24 08:54:00,48.8,48.5,30.15,NE,40,0.0,3.0,99,0.00,,,0.01,Wunderground v.1.15,2013-01-24 16:54:00,
2013-01-24 08:55:00,48.9,48.6,30.15,NE,39,0.0,3.0,99,0.00,,,0.01,Wunderground v.1.15,2013-01-24 16:55:00,
2013-01-24 08:57:00,48.9,48.6,30.15,NE,37,0.0,3.0,99,0.00,,,0.01,Wunderground v.1.15,2013-01-24 16:57:00,
2013-01-24 09:01:00,49.0,48.7,30.16,NE,40,1.0,3.0,99,0.00,,,0.01,Wunderground v.1.15,2013-01-24 17:01:00,
2013-01-24 09:02:00,49.0,48.7,30.16,NE,38,1.0,3.0,99,0.00,,,0.01,Wunderground v.1.15,2013-01-24 17:02:00,
2013-01-24 09:04:00,49.0,48.7,30.16,NE,39,1.0,3.0,99,0.00,,,0.01,Wunderground v.1.15,2013-01-24 17:04:00,
2013-01-24 09:10:00,49.1,48.8,30.16,NE,38,1.0,3.0,99,0.00,,,0.01,Wunderground v.1.15,2013-01-24 17:10:00,
2013-01-24 09:11:00,49.1,48.8,30.16,NE,38,1.0,3.0,99,0.00,,,0.01,Wunderground v.1.15,2013-01-24 17:11:00,
2013-01-24 09:12:00,49.1,48.8,30.16,NE,40,1.0,3.0,99,0.00,,,0.01,Wunderground v.1.15,2013-01-24 17:12:00,
2013-01-24 09:15:00,49.1,48.8,30.16,NE,39,0.0,3.0,99,0.00,,,0.01,Wunderground v.1.15,2013-01-24 17:15:00,
2013-01-24 09:17:00,49.1,48.8,30.17,NE,38,0.0,3.0,99,0.00,,,0.01,Wunderground v.1.15,2013-01-24 17:17:00,
2013-01-24 09:19:00,49.1,48.8,30.17,NE,37,1.0,3.0,99,0.00,,,0.01,Wunderground v.1.15,2013-01-24 17:19:00,
2013-01-24 09:23:00,49.1,48.8,30.17,NE,38,1.0,3.0,99,0.00,,,0.01,Wunderground v.1.15,2013-01-24 17:23:00,
2013-01-24 09:26:00,49.1,48.8,30.17,NE,39,1.0,3.0,99,0.00,,,0.01,Wunderground v.1.15,2013-01-24 17:26:00,
2013-01-24 09:28:00,49.1,48.8,30.17,NE,38,1.0,3.0,99,0.00,,,0.01,Wunderground v.1.15,2013-01-24 17:28:00,
2013-01-24 09:29:00,49.1,48.8,30.17,NE,39,1.0,3.0,99,0.00,,,0.01,Wunderground v.1.15,2013-01-24 17:29:00,
2013-01-24 09:34:00,49.1,48.8,30.18,NE,39,1.0,3.0,99,0.00,,,0.01,Wunderground v.1.15,2013-01-24 17:34:00,
2013-01-24 09:35:00,49.2,48.9,30.18,NE,40,1.0,3.0,99,0.00,,,0.01,Wunderground v.1.15,2013-01-24 17:35:00,
2013-01-24 09:40:00,49.3,49.0,30.18,NE,39,0.0,3.0,99,0.00,,,0.01,Wunderground v.1.15,2013-01-24 17:40:00,
2013-01-24 09:41:00,49.3,49.0,30.18,NE,37,0.0,3.0,99,0.00,,,0.01,Wunderground v.1.15,2013-01-24 17:41:00,
2013-01-24 09:46:00,49.4,49.1,30.18,NE,39,0.0,3.0,99,0.00,,,0.01,Wunderground v.1.15,2013-01-24 17:46:00,
2013-01-24 09:47:00,49.4,49.1,30.18,NE,38,0.0,3.0,99,0.00,,,0.01,Wunderground v.1.15,2013-01-24 17:47:00,
2013-01-24 09:52:00,49.5,49.2,30.19,NE,39,0.0,3.0,99,0.00,,,0.01,Wunderground v.1.15,2013-01-24 17:52:00,
2013-01-24 09:54:00,49.5,49.2,30.19,NE,39,0.0,3.0,99,0.00,,,0.01,Wunderground v.1.15,2013-01-24 17:54:00,
2013-01-24 09:55:00,49.5,49.2,30.18,NE,38,0.0,3.0,99,0.00,,,0.01,Wunderground v.1.15,2013-01-24 17:55:00,
2013-01-24 09:57:00,49.6,49.3,30.19,NE,38,0.0,3.0,99,0.00,,,0.01,Wunderground v.1.15,2013-01-24 17:57:00,
2013-01-24 10:01:00,49.6,49.3,30.19,NE,38,0.0,3.0,99,0.00,,,0.01,Wunderground v.1.15,2013-01-24 18:01:00,
2013-01-24 10:02:00,49.6,49.3,30.19,NE,38,0.0,3.0,99,0.00,,,0.01,Wunderground v.1.15,2013-01-24 18:02:00,
2013-01-24 10:03:00,49.7,49.4,30.19,NE,39,0.0,3.0,99,0.00,,,0.01,Wunderground v.1.15,2013-01-24 18:03:00,
2013-01-24 10:06:00,49.7,49.4,30.19,NE,39,0.0,3.0,99,0.00,,,0.01,Wunderground v.1.15,2013-01-24 18:06:00,
2013-01-24 10:09:00,49.7,49.4,30.19,NE,39,0.0,3.0,99,0.00,,,0.01,Wunderground v.1.15,2013-01-24 18:09:00,
2013-01-24 10:13:00,49.8,49.5,30.19,NE,38,0.0,3.0,99,0.00,,,0.01,Wunderground v.1.15,2013-01-24 18:13:00,
2013-01-24 10:16:00,49.9,49.6,30.19,NE,39,0.0,3.0,99,0.00,,,0.01,Wunderground v.1.15,2013-01-24 18:16:00,
2013-01-24 10:19:00,50.0,49.7,30.19,NE,39,0.0,3.0,99,0.00,,,0.01,Wunderground v.1.15,2013-01-24 18:19:00,
2013-01-24 10:21:00,50.0,49.7,30.19,NE,39,0.0,3.0,99,0.00,,,0.01,Wunderground v.1.15,2013-01-24 18:21:00,
2013-01-24 10:22:00,50.0,49.7,30.19,NE,39,0.0,3.0,99,0.00,,,0.01,Wunderground v.1.15,2013-01-24 18:22:00,
2013-01-24 10:25:00,50.0,49.7,30.19,NE,38,0.0,3.0,99,0.00,,,0.01,Wunderground v.1.15,2013-01-24 18:25:00,
2013-01-24 10:27:00,50.1,49.8,30.19,NE,39,0.0,3.0,99,0.00,,,0.01,Wunderground v.1.15,2013-01-24 18:27:00,
2013-01-24 10:28:00,50.1,49.8,30.19,NE,39,0.0,3.0,99,0.00,,,0.01,Wunderground v.1.15,2013-01-24 18:28:00,
2013-01-24 10:31:00,50.1,49.8,30.19,NE,39,0.0,3.0,99,0.00,,,0.01,Wunderground v.1.15,2013-01-24 18:31:00,
2013-01-24 10:33:00,50.1,49.8,30.19,NE,38,0.0,3.0,99,0.00,,,0.01,Wunderground v.1.15,2013-01-24 18:33:00,
2013-01-24 10:36:00,50.1,49.8,30.19,NE,39,0.0,3.0,99,0.00,,,0.01,Wunderground v.1.15,2013-01-24 18:36:00,
2013-01-24 10:39:00,50.2,49.9,30.19,NE,39,0.0,3.0,99,0.00,,,0.01,Wunderground v.1.15,2013-01-24 18:39:00,
2013-01-24 10:40:00,50.2,49.9,30.19,NE,39,0.0,3.0,99,0.00,,,0.01,Wunderground v.1.15,2013-01-24 18:40:00,
2013-01-24 10:43:00,50.2,49.9,30.19,NE,39,0.0,3.0,99,0.00,,,0.01,Wunderground v.1.15,2013-01-24 18:43:00,
2013-01-24 10:44:00,50.2,49.9,30.19,NE,38,0.0,3.0,99,0.00,,,0.01,Wunderground v.1.15,2013-01-24 18:44:00,
2013-01-24 10:49:00,50.3,50.0,30.19,NE,39,0.0,3.0,99,0.00,,,0.01,Wunderground v.1.15,2013-01-24 18:49:00,
2013-01-24 10:50:00,50.3,50.0,30.19,NE,39,0.0,3.0,99,0.00,,,0.01,Wunderground v.1.15,2013-01-24 18:50:00,
2013-01-24 10:53:00,50.3,50.0,30.19,NE,39,0.0,3.0,99,0.00,,,0.01,Wunderground v.1.15,2013-01-24 18:53:00,
2013-01-24 10:55:00,50.4,50.1,30.19,NE,39,0.0,3.0,99,0.00,,,0.01,Wunderground v.1.15,2013-01-24 18:55:00,
2013-01-24 10:57:00,50.3,50.0,30.19,NE,39,0.0,3.0,99,0.00,,,0.01,Wunderground v.1.15,2013-01-24 18:57:00,
2013-01-24 11:03:00,50.4,50.1,30.19,NE,39,1.0,3.0,99,0.00,,,0.01,Wunderground v.1.15,2013-01-24 19:03:00,
2013-01-24 11:04:00,50.4,50.1,30.19,NE,39,1.0,3.0,99,0.00,,,0.01,Wunderground v.1.15,2013-01-24 19:04:00,
2013-01-24 11:09:00,50.6,50.3,30.19,NE,39,1.0,3.0,99,0.00,,,0.01,Wunderground v.1.15,2013-01-24 19:09:00,
2013-01-24 11:10:00,50.6,50.3,30.19,NE,39,1.0,3.0,99,0.00,,,0.01,Wunderground v.1.15,2013-01-24 19:10:00,
2013-01-24 11:11:00,50.6,50.3,30.19,NE,39,1.0,3.0,99,0.00,,,0.01,Wunderground v.1.15,2013-01-24 19:11:00,
2013-01-24 11:14:00,50.7,50.4,30.19,NE,39,0.0,3.0,99,0.00,,,0.01,Wunderground v.1.15,2013-01-24 19:14:00,
2013-01-24 11:15:00,50.8,50.5,30.19,NE,39,0.0,3.0,99,0.00,,,0.01,Wunderground v.1.15,2013-01-24 19:15:00,
2013-01-24 11:17:00,50.8,50.5,30.19,NE,39,0.0,3.0,99,0.00,,,0.01,Wunderground v.1.15,2013-01-24 19:17:00,
2013-01-24 11:20:00,50.8,50.5,30.19,NE,39,0.0,3.0,99,0.00,,,0.01,Wunderground v.1.15,2013-01-24 19:20:00,
2013-01-24 11:21:00,50.9,50.6,30.19,NE,39,0.0,3.0,99,0.00,,,0.01,Wunderground v.1.15,2013-01-24 19:21:00,
2013-01-24 11:25:00,50.9,50.4,30.19,NE,39,0.0,3.0,98,0.00,,,0.01,Wunderground v.1.15,2013-01-24 19:25:00,
2013-01-24 11:26:00,51.0,50.5,30.19,NE,39,0.0,3.0,98,0.00,,,0.01,Wunderground v.1.15,2013-01-24 19:26:00,
2013-01-24 11:27:00,51.0,50.5,30.19,NE,39,0.0,3.0,98,0.00,,,0.01,Wunderground v.1.15,2013-01-24 19:27:00,
2013-01-24 11:31:00,51.1,50.6,30.19,NE,39,0.0,3.0,98,0.00,,,0.01,Wunderground v.1.15,2013-01-24 19:31:00,
2013-01-24 11:34:00,51.2,50.7,30.19,NE,39,0.0,3.0,98,0.00,,,0.01,Wunderground v.1.15,2013-01-24 19:34:00,
2013-01-24 11:35:00,51.2,50.7,30.19,NE,39,0.0,3.0,98,0.00,,,0.01,Wunderground v.1.15,2013-01-24 19:35:00,
2013-01-24 11:39:00,51.3,50.8,30.18,NE,39,0.0,3.0,98,0.00,,,0.01,Wunderground v.1.15,2013-01-24 19:39:00,
2013-01-24 11:40:00,51.3,50.8,30.18,NE,39,0.0,3.0,98,0.00,,,0.01,Wunderground v.1.15,2013-01-24 19:40:00,
2013-01-24 11:41:00,51.4,50.9,30.18,NE,39,0.0,3.0,98,0.00,,,0.01,Wunderground v.1.15,2013-01-24 19:41:00,
2013-01-24 11:43:00,51.4,50.9,30.18,NE,39,0.0,3.0,98,0.00,,,0.01,Wunderground v.1.15,2013-01-24 19:43:00,
2013-01-24 11:47:00,51.5,50.7,30.18,NE,39,0.0,3.0,97,0.00,,,0.01,Wunderground v.1.15,2013-01-24 19:47:00,
2013-01-24 11:49:00,51.5,50.7,30.18,NE,39,0.0,3.0,97,0.00,,,0.01,Wunderground v.1.15,2013-01-24 19:49:00,
2013-01-24 11:50:00,51.5,50.7,30.18,NE,39,0.0,3.0,97,0.00,,,0.01,Wunderground v.1.15,2013-01-24 19:50:00,
2013-01-24 11:54:00,51.7,50.9,30.18,NE,39,0.0,3.0,97,0.00,,,0.01,Wunderground v.1.15,2013-01-24 19:54:00,
2013-01-24 11:56:00,51.7,50.9,30.18,NE,38,0.0,3.0,97,0.00,,,0.01,Wunderground v.1.15,2013-01-24 19:56:00,
2013-01-24 11:59:00,51.8,51.0,30.18,NE,39,0.0,3.0,97,0.00,,,0.01,Wunderground v.1.15,2013-01-24 19:59:00,
2013-01-24 12:01:00,51.9,51.1,30.17,NE,39,0.0,3.0,97,0.00,,,0.01,Wunderground v.1.15,2013-01-24 20:01:00,
2013-01-24 12:02:00,52.0,51.2,30.17,NE,39,0.0,3.0,97,0.00,,,0.01,Wunderground v.1.15,2013-01-24 20:02:00,
2013-01-24 12:07:00,52.3,51.2,30.17,NE,39,0.0,3.0,96,0.00,,,0.01,Wunderground v.1.15,2013-01-24 20:07:00,
2013-01-24 12:08:00,52.3,51.2,30.17,NE,39,0.0,3.0,96,0.00,,,0.01,Wunderground v.1.15,2013-01-24 20:08:00,
2013-01-24 12:09:00,52.3,51.2,30.17,NE,39,0.0,3.0,96,0.00,,,0.01,Wunderground v.1.15,2013-01-24 20:09:00,
2013-01-24 12:14:00,52.6,51.5,30.17,NE,39,0.0,3.0,96,0.00,,,0.01,Wunderground v.1.15,2013-01-24 20:14:00,
2013-01-24 12:16:00,52.7,51.3,30.17,NE,39,0.0,3.0,95,0.00,,,0.01,Wunderground v.1.15,2013-01-24 20:16:00,
2013-01-24 12:19:00,53.0,51.6,30.17,NE,39,0.0,3.0,95,0.00,,,0.01,Wunderground v.1.15,2013-01-24 20:19:00,
2013-01-24 12:20:00,53.0,51.6,30.17,NE,39,0.0,3.0,95,0.00,,,0.01,Wunderground v.1.15,2013-01-24 20:20:00,
2013-01-24 12:21:00,53.1,51.4,30.17,NE,39,0.0,3.0,94,0.00,,,0.01,Wunderground v.1.15,2013-01-24 20:21:00,
2013-01-24 12:22:00,53.1,51.4,30.17,NE,39,0.0,3.0,94,0.00,,,0.01,Wunderground v.1.15,2013-01-24 20:22:00,
2013-01-24 12:26:00,53.1,51.4,30.17,NE,39,1.0,3.0,94,0.00,,,0.01,Wunderground v.1.15,2013-01-24 20:26:00,
2013-01-24 12:27:00,53.1,51.1,30.17,NE,39,1.0,3.0,93,0.00,,,0.01,Wunderground v.1.15,2013-01-24 20:27:00,
2013-01-24 12:31:00,53.1,51.1,30.16,NE,39,1.0,3.0,93,0.00,,,0.01,Wunderground v.1.15,2013-01-24 20:31:00,
2013-01-24 12:33:00,53.1,51.1,30.16,NE,39,1.0,3.0,93,0.00,,,0.01,Wunderground v.1.15,2013-01-24 20:33:00,
2013-01-24 12:34:00,53.2,51.2,30.16,NE,39,1.0,3.0,93,0.00,,,0.01,Wunderground v.1.15,2013-01-24 20:34:00,
2013-01-24 12:38:00,53.2,51.2,30.16,NE,39,1.0,3.0,93,0.00,,,0.01,Wunderground v.1.15,2013-01-24 20:38:00,
2013-01-24 12:39:00,53.2,51.2,30.16,NE,39,1.0,3.0,93,0.00,,,0.01,Wunderground v.1.15,2013-01-24 20:39:00,
2013-01-24 12:40:00,53.3,51.3,30.16,NE,39,1.0,1.0,93,0.00,,,0.01,Wunderground v.1.15,2013-01-24 20:40:00,
2013-01-24 12:45:00,53.3,51.0,30.16,NE,39,1.0,3.0,92,0.00,,,0.01,Wunderground v.1.15,2013-01-24 20:45:00,
2013-01-24 12:48:00,53.5,51.5,30.16,NE,39,1.0,3.0,93,0.00,,,0.01,Wunderground v.1.15,2013-01-24 20:48:00,
2013-01-24 12:51:00,53.7,51.7,30.16,NE,39,0.0,3.0,93,0.00,,,0.01,Wunderground v.1.15,2013-01-24 20:51:00,
2013-01-24 12:55:00,53.8,51.5,30.16,NE,39,0.0,3.0,92,0.00,,,0.01,Wunderground v.1.15,2013-01-24 20:55:00,
2013-01-24 12:57:00,53.8,51.5,30.16,NE,39,0.0,3.0,92,0.00,,,0.01,Wunderground v.1.15,2013-01-24 20:57:00,
2013-01-24 13:00:00,53.9,51.6,30.16,NE,39,0.0,3.0,92,0.00,,,0.01,Wunderground v.1.15,2013-01-24 21:00:00,
2013-01-24 13:04:00,54.0,51.7,30.15,NE,39,0.0,3.0,92,0.00,,,0.01,Wunderground v.1.15,2013-01-24 21:04:00,
2013-01-24 13:06:00,54.0,51.7,30.15,NE,39,1.0,3.0,92,0.00,,,0.01,Wunderground v.1.15,2013-01-24 21:06:00,
2013-01-24 13:10:00,54.1,51.8,30.15,NE,39,1.0,1.0,92,0.00,,,0.01,Wunderground v.1.15,2013-01-24 21:10:00,
2013-01-24 13:12:00,54.1,51.8,30.15,NE,39,1.0,3.0,92,0.00,,,0.01,Wunderground v.1.15,2013-01-24 21:12:00,
2013-01-24 13:16:00,54.1,51.8,30.15,NE,39,1.0,3.0,92,0.00,,,0.01,Wunderground v.1.15,2013-01-24 21:16:00,
2013-01-24 13:18:00,54.2,51.6,30.15,NE,39,1.0,3.0,91,0.00,,,0.01,Wunderground v.1.15,2013-01-24 21:18:00,
2013-01-24 13:22:00,54.2,51.6,30.15,NE,39,1.0,3.0,91,0.00,,,0.01,Wunderground v.1.15,2013-01-24 21:22:00,
2013-01-24 13:24:00,54.3,51.7,30.15,NE,39,0.0,3.0,91,0.00,,,0.01,Wunderground v.1.15,2013-01-24 21:24:00,
2013-01-24 13:28:00,54.4,51.8,30.15,NE,39,0.0,3.0,91,0.00,,,0.01,Wunderground v.1.15,2013-01-24 21:28:00,
2013-01-24 13:30:00,54.5,52.2,30.15,NE,39,0.0,4.0,92,0.00,,,0.01,Wunderground v.1.15,2013-01-24 21:30:00,
2013-01-24 13:35:00,54.5,51.9,30.15,NE,39,2.0,4.0,91,0.00,,,0.01,Wunderground v.1.15,2013-01-24 21:35:00,
2013-01-24 13:36:00,54.4,51.8,30.14,NE,39,2.0,4.0,91,0.00,,,0.01,Wunderground v.1.15,2013-01-24 21:36:00,
2013-01-24 13:42:00,54.6,52.0,30.14,NE,39,1.0,3.0,91,0.00,,,0.01,Wunderground v.1.15,2013-01-24 21:42:00,
2013-01-24 13:44:00,54.7,52.1,30.14,NE,39,1.0,3.0,91,0.00,,,0.01,Wunderground v.1.15,2013-01-24 21:44:00,
2013-01-24 13:46:00,54.8,52.2,30.14,NE,39,0.0,3.0,91,0.00,,,0.01,Wunderground v.1.15,2013-01-24 21:46:00,
2013-01-24 13:47:00,54.8,52.2,30.14,NE,39,0.0,3.0,91,0.00,,,0.01,Wunderground v.1.15,2013-01-24 21:47:00,
2013-01-24 13:50:00,54.9,52.3,30.14,NE,39,0.0,3.0,91,0.00,,,0.01,Wunderground v.1.15,2013-01-24 21:50:00,
2013-01-24 13:54:00,55.0,52.4,30.14,NE,39,0.0,3.0,91,0.00,,,0.01,Wunderground v.1.15,2013-01-24 21:54:00,
2013-01-24 13:56:00,55.1,52.2,30.14,NE,39,0.0,3.0,90,0.00,,,0.01,Wunderground v.1.15,2013-01-24 21:56:00,
2013-01-24 13:59:00,55.2,52.3,30.14,NE,39,0.0,3.0,90,0.00,,,0.01,Wunderground v.1.15,2013-01-24 21:59:00,
2013-01-24 14:02:00,55.2,52.3,30.13,NE,39,1.0,3.0,90,0.00,,,0.01,Wunderground v.1.15,2013-01-24 22:02:00,
2013-01-24 14:07:00,55.3,52.4,30.14,NE,39,1.0,3.0,90,0.00,,,0.01,Wunderground v.1.15,2013-01-24 22:07:00,
2013-01-24 14:08:00,55.3,52.4,30.14,NE,39,1.0,3.0,90,0.00,,,0.01,Wunderground v.1.15,2013-01-24 22:08:00,
2013-01-24 14:09:00,55.3,52.4,30.14,NE,39,1.0,3.0,90,0.00,,,0.01,Wunderground v.1.15,2013-01-24 22:09:00,
2013-01-24 14:14:00,55.5,52.6,30.14,NE,39,0.0,3.0,90,0.00,,,0.01,Wunderground v.1.15,2013-01-24 22:14:00,
2013-01-24 14:17:00,55.7,52.8,30.13,NE,39,0.0,3.0,90,0.00,,,0.01,Wunderground v.1.15,2013-01-24 22:17:00,
2013-01-24 14:19:00,55.9,53.0,30.13,NE,39,0.0,3.0,90,0.00,,,0.01,Wunderground v.1.15,2013-01-24 22:19:00,
2013-01-24 14:20:00,55.9,53.0,30.13,NE,39,0.0,3.0,90,0.00,,,0.01,Wunderground v.1.15,2013-01-24 22:20:00,
2013-01-24 14:25:00,56.1,52.9,30.13,NE,39,1.0,3.0,89,0.00,,,0.01,Wunderground v.1.15,2013-01-24 22:25:00,
2013-01-24 14:27:00,56.1,52.9,30.13,NE,39,1.0,3.0,89,0.00,,,0.01,Wunderground v.1.15,2013-01-24 22:27:00,
2013-01-24 14:32:00,56.2,53.3,30.14,NE,39,1.0,3.0,90,0.00,,,0.01,Wunderground v.1.15,2013-01-24 22:32:00,
2013-01-24 14:36:00,56.4,53.2,30.13,NE,39,1.0,4.0,89,0.00,,,0.01,Wunderground v.1.15,2013-01-24 22:36:00,
2013-01-24 14:40:00,56.4,53.2,30.14,NE,39,1.0,3.0,89,0.00,,,0.01,Wunderground v.1.15,2013-01-24 22:40:00,
2013-01-24 14:41:00,56.4,53.2,30.14,NE,39,2.0,3.0,89,0.00,,,0.01,Wunderground v.1.15,2013-01-24 22:41:00,
2013-01-24 14:43:00,56.3,52.8,30.14,NE,39,2.0,3.0,88,0.00,,,0.01,Wunderground v.1.15,2013-01-24 22:43:00,
2013-01-24 14:46:00,56.3,53.1,30.14,NE,48,2.0,4.0,89,0.00,,,0.01,Wunderground v.1.15,2013-01-24 22:46:00,
2013-01-24 14:49:00,56.3,53.1,30.14,NE,49,2.0,4.0,89,0.00,,,0.01,Wunderground v.1.15,2013-01-24 22:49:00,
2013-01-24 14:51:00,56.3,53.1,30.14,NE,54,2.0,3.0,89,0.00,,,0.01,Wunderground v.1.15,2013-01-24 22:51:00,
2013-01-24 14:56:00,56.3,53.1,30.14,SE,134,2.0,3.0,89,0.00,,,0.01,Wunderground v.1.15,2013-01-24 22:56:00,
2013-01-24 14:57:00,56.3,53.1,30.14,SSE,149,2.0,3.0,89,0.00,,,0.01,Wunderground v.1.15,2013-01-24 22:57:00,
2013-01-24 14:58:00,56.3,53.1,30.14,SSE,154,2.0,3.0,89,0.00,,,0.01,Wunderground v.1.15,2013-01-24 22:58:00,
2013-01-24 15:02:00,56.3,53.1,30.14,South,171,3.0,3.0,89,0.00,,,0.01,Wunderground v.1.15,2013-01-24 23:02:00,
2013-01-24 15:04:00,56.4,53.2,30.14,South,170,3.0,3.0,89,0.00,,,0.01,Wunderground v.1.15,2013-01-24 23:04:00,
2013-01-24 15:09:00,56.6,53.1,30.14,SSE,155,3.0,4.0,88,0.00,,,0.01,Wunderground v.1.15,2013-01-24 23:09:00,
2013-01-24 15:10:00,56.6,53.1,30.14,SSE,154,3.0,5.0,88,0.00,,,0.01,Wunderground v.1.15,2013-01-24 23:10:00,
2013-01-24 15:16:00,56.5,53.0,30.14,South,172,3.0,5.0,88,0.00,,,0.01,Wunderground v.1.15,2013-01-24 23:16:00,
2013-01-24 15:17:00,56.5,53.0,30.14,South,172,3.0,5.0,88,0.00,,,0.01,Wunderground v.1.15,2013-01-24 23:17:00,
2013-01-24 15:19:00,56.5,53.0,30.14,SSE,154,3.0,5.0,88,0.00,,,0.01,Wunderground v.1.15,2013-01-24 23:19:00,
2013-01-24 15:22:00,56.6,53.1,30.15,SSE,164,3.0,3.0,88,0.00,,,0.01,Wunderground v.1.15,2013-01-24 23:22:00,
2013-01-24 15:26:00,56.6,53.1,30.15,SSE,160,3.0,3.0,88,0.00,,,0.01,Wunderground v.1.15,2013-01-24 23:26:00,
2013-01-24 15:27:00,56.6,53.1,30.15,SSE,160,3.0,4.0,88,0.00,,,0.01,Wunderground v.1.15,2013-01-24 23:27:00,
2013-01-24 15:28:00,56.6,53.1,30.15,SSE,160,3.0,4.0,88,0.00,,,0.01,Wunderground v.1.15,2013-01-24 23:28:00,
2013-01-24 15:32:00,56.7,53.2,30.15,South,173,2.0,3.0,88,0.00,,,0.01,Wunderground v.1.15,2013-01-24 23:32:00,
2013-01-24 15:33:00,56.7,53.2,30.15,SSE,164,2.0,3.0,88,0.00,,,0.01,Wunderground v.1.15,2013-01-24 23:33:00,
2013-01-24 15:34:00,56.7,53.2,30.15,SSE,162,2.0,3.0,88,0.00,,,0.01,Wunderground v.1.15,2013-01-24 23:34:00,
2013-01-24 15:36:00,56.8,53.6,30.15,SSE,164,2.0,3.0,89,0.00,,,0.01,Wunderground v.1.15,2013-01-24 23:36:00,
2013-01-24 15:39:00,56.8,53.6,30.15,SE,139,2.0,5.0,89,0.00,,,0.01,Wunderground v.1.15,2013-01-24 23:39:00,
2013-01-24 15:40:00,56.8,53.3,30.15,SE,139,3.0,5.0,88,0.00,,,0.01,Wunderground v.1.15,2013-01-24 23:40:00,
2013-01-24 15:43:00,56.8,53.3,30.15,SE,141,3.0,5.0,88,0.00,,,0.01,Wunderground v.1.15,2013-01-24 23:43:00,
2013-01-24 15:45:00,56.8,53.3,30.15,SE,141,3.0,5.0,88,0.00,,,0.01,Wunderground v.1.15,2013-01-24 23:45:00,
2013-01-24 15:47:00,56.8,53.3,30.15,SE,141,3.0,5.0,88,0.00,,,0.01,Wunderground v.1.15,2013-01-24 23:47:00,
2013-01-24 15:51:00,56.8,53.3,30.15,SE,141,3.0,3.0,88,0.00,,,0.01,Wunderground v.1.15,2013-01-24 23:51:00,
2013-01-24 15:52:00,56.9,53.4,30.15,SE,141,3.0,3.0,88,0.00,,,0.01,Wunderground v.1.15,2013-01-24 23:52:00,
2013-01-24 15:55:00,56.9,53.4,30.15,SE,141,3.0,4.0,88,0.00,,,0.01,Wunderground v.1.15,2013-01-24 23:55:00,
2013-01-24 15:59:00,57.1,53.6,30.15,SE,137,4.0,5.0,88,0.00,,,0.01,Wunderground v.1.15,2013-01-24 23:59:00,
2013-01-24 16:01:00,57.2,53.7,30.15,SE,138,4.0,6.0,88,0.00,,,0.01,Wunderground v.1.15,2013-01-25 00:01:00,
2013-01-24 16:04:00,57.2,53.7,30.15,ESE,117,5.0,6.0,88,0.00,,,0.01,Wunderground v.1.15,2013-01-25 00:04:00,
2013-01-24 16:05:00,57.2,53.7,30.15,ESE,122,5.0,6.0,88,0.00,,,0.01,Wunderground v.1.15,2013-01-25 00:05:00,
2013-01-24 16:07:00,57.3,53.8,30.15,SE,133,5.0,6.0,88,0.00,,,0.01,Wunderground v.1.15,2013-01-25 00:07:00,
2013-01-24 16:08:00,57.2,53.7,30.15,SE,131,5.0,6.0,88,0.00,,,0.01,Wunderground v.1.15,2013-01-25 00:08:00,
2013-01-24 16:11:00,57.2,54.0,30.16,SE,129,5.0,5.0,89,0.00,,,0.01,Wunderground v.1.15,2013-01-25 00:11:00,
2013-01-24 16:14:00,57.1,53.9,30.16,ESE,121,5.0,6.0,89,0.00,,,0.01,Wunderground v.1.15,2013-01-25 00:14:00,
2013-01-24 16:15:00,57.1,53.9,30.16,ESE,121,5.0,6.0,89,0.00,,,0.01,Wunderground v.1.15,2013-01-25 00:15:00,
2013-01-24 16:17:00,57.1,53.9,30.16,ESE,121,5.0,6.0,89,0.00,,,0.01,Wunderground v.1.15,2013-01-25 00:17:00,
2013-01-24 16:22:00,57.1,54.2,30.16,ESE,114,4.0,5.0,90,0.00,,,0.01,Wunderground v.1.15,2013-01-25 00:22:00,
2013-01-24 16:23:00,57.1,54.2,30.16,ESE,118,4.0,5.0,90,0.00,,,0.01,Wunderground v.1.15,2013-01-25 00:23:00,
2013-01-24 16:24:00,57.1,54.2,30.16,ESE,120,4.0,5.0,90,0.00,,,0.01,Wunderground v.1.15,2013-01-25 00:24:00,
2013-01-24 16:29:00,56.9,54.0,30.16,ESE,121,5.0,8.0,90,0.00,,,0.01,Wunderground v.1.15,2013-01-25 00:29:00,
2013-01-24 16:30:00,56.8,53.9,30.16,ESE,122,5.0,7.0,90,0.00,,,0.01,Wunderground v.1.15,2013-01-25 00:30:00,
2013-01-24 16:31:00,56.8,53.9,30.16,SE,126,5.0,7.0,90,0.00,,,0.01,Wunderground v.1.15,2013-01-25 00:31:00,
2013-01-24 16:37:00,56.6,54.0,30.16,ESE,119,5.0,7.0,91,0.00,,,0.01,Wunderground v.1.15,2013-01-25 00:37:00,
2013-01-24 16:38:00,56.6,54.0,30.16,ESE,118,5.0,7.0,91,0.00,,,0.01,Wunderground v.1.15,2013-01-25 00:38:00,
2013-01-24 16:39:00,56.6,54.0,30.16,ESE,118,5.0,7.0,91,0.00,,,0.01,Wunderground v.1.15,2013-01-25 00:39:00,
2013-01-24 16:43:00,56.5,53.9,30.16,ESE,119,4.0,5.0,91,0.00,,,0.01,Wunderground v.1.15,2013-01-25 00:43:00,
2013-01-24 16:44:00,56.5,53.9,30.16,ESE,118,3.0,5.0,91,0.00,,,0.01,Wunderground v.1.15,2013-01-25 00:44:00,
2013-01-24 16:45:00,56.5,53.9,30.16,ESE,118,3.0,5.0,91,0.00,,,0.01,Wunderground v.1.15,2013-01-25 00:45:00,
2013-01-24 16:51:00,56.3,53.7,30.16,SE,125,4.0,4.0,91,0.00,,,0.01,Wunderground v.1.15,2013-01-25 00:51:00,
2013-01-24 16:53:00,56.3,54.0,30.16,SE,126,4.0,4.0,92,0.00,,,0.01,Wunderground v.1.15,2013-01-25 00:53:00,
2013-01-24 16:54:00,56.2,53.9,30.16,SE,126,4.0,4.0,92,0.00,,,0.01,Wunderground v.1.15,2013-01-25 00:54:00,
2013-01-24 17:00:00,56.1,53.8,30.16,SE,128,3.0,3.0,92,0.00,,,0.01,Wunderground v.1.15,2013-01-25 01:00:00,
2013-01-24 17:01:00,56.1,53.8,30.17,SE,129,3.0,3.0,92,0.00,,,0.01,Wunderground v.1.15,2013-01-25 01:01:00,
2013-01-24 17:06:00,56.0,53.7,30.17,SE,129,2.0,3.0,92,0.00,,,0.01,Wunderground v.1.15,2013-01-25 01:06:00,
2013-01-24 17:07:00,56.0,53.7,30.17,SE,129,2.0,3.0,92,0.00,,,0.01,Wunderground v.1.15,2013-01-25 01:07:00,
2013-01-24 17:10:00,56.0,53.7,30.17,SE,129,2.0,2.0,92,0.00,,,0.01,Wunderground v.1.15,2013-01-25 01:10:00,
2013-01-24 17:13:00,55.9,53.6,30.17,SE,129,1.0,3.0,92,0.00,,,0.01,Wunderground v.1.15,2013-01-25 01:13:00,
2013-01-24 17:14:00,55.9,53.6,30.17,SE,129,1.0,3.0,92,0.00,,,0.01,Wunderground v.1.15,2013-01-25 01:14:00,
2013-01-24 17:15:00,55.9,53.6,30.17,SE,129,1.0,3.0,92,0.00,,,0.01,Wunderground v.1.15,2013-01-25 01:15:00,
2013-01-24 17:19:00,55.9,53.6,30.17,SE,129,0.0,3.0,92,0.00,,,0.01,Wunderground v.1.15,2013-01-25 01:19:00,
2013-01-24 17:22:00,55.8,53.5,30.17,SE,129,0.0,3.0,92,0.00,,,0.01,Wunderground v.1.15,2013-01-25 01:22:00,
2013-01-24 17:23:00,55.8,53.5,30.17,SE,129,0.0,3.0,92,0.00,,,0.01,Wunderground v.1.15,2013-01-25 01:23:00,
2013-01-24 17:27:00,55.8,53.8,30.17,SE,129,0.0,3.0,93,0.00,,,0.01,Wunderground v.1.15,2013-01-25 01:27:00,
2013-01-24 17:28:00,55.8,53.8,30.17,SE,129,0.0,3.0,93,0.00,,,0.01,Wunderground v.1.15,2013-01-25 01:28:00,
2013-01-24 17:29:00,55.7,53.7,30.17,SE,129,0.0,3.0,93,0.00,,,0.01,Wunderground v.1.15,2013-01-25 01:29:00,
2013-01-24 17:35:00,55.6,53.3,30.17,SE,129,0.0,3.0,92,0.00,,,0.01,Wunderground v.1.15,2013-01-25 01:35:00,
2013-01-24 17:37:00,55.5,53.2,30.17,SE,135,1.0,3.0,92,0.00,,,0.01,Wunderground v.1.15,2013-01-25 01:37:00,
2013-01-24 17:42:00,55.3,53.3,30.17,SSE,156,1.0,3.0,93,0.00,,,0.01,Wunderground v.1.15,2013-01-25 01:42:00,
2013-01-24 17:44:00,55.2,53.2,30.17,SSE,164,1.0,3.0,93,0.00,,,0.01,Wunderground v.1.15,2013-01-25 01:44:00,
2013-01-24 17:47:00,55.0,53.0,30.17,SSE,168,1.0,3.0,93,0.00,,,0.01,Wunderground v.1.15,2013-01-25 01:47:00,
2013-01-24 17:49:00,54.9,52.9,30.17,SSE,168,1.0,3.0,93,0.00,,,0.01,Wunderground v.1.15,2013-01-25 01:49:00,
2013-01-24 17:50:00,54.8,52.8,30.17,SSE,168,1.0,3.0,93,0.00,,,0.01,Wunderground v.1.15,2013-01-25 01:50:00,
2013-01-24 17:54:00,54.6,52.6,30.17,SSE,164,1.0,3.0,93,0.00,,,0.01,Wunderground v.1.15,2013-01-25 01:54:00,
2013-01-24 17:56:00,54.4,52.4,30.17,SSE,162,1.0,3.0,93,0.00,,,0.01,Wunderground v.1.15,2013-01-25 01:56:00,
2013-01-24 17:59:00,54.2,52.2,30.17,SSE,162,1.0,3.0,93,0.00,,,0.01,Wunderground v.1.15,2013-01-25 01:59:00,
2013-01-24 18:03:00,54.0,52.0,30.17,SSE,162,1.0,3.0,93,0.00,,,0.01,Wunderground v.1.15,2013-01-25 02:03:00,
2013-01-24 18:05:00,53.9,51.9,30.17,SSE,162,1.0,3.0,93,0.00,,,0.01,Wunderground v.1.15,2013-01-25 02:05:00,
2013-01-24 18:06:00,53.8,52.1,30.17,SSE,162,1.0,3.0,94,0.00,,,0.01,Wunderground v.1.15,2013-01-25 02:06:00,
2013-01-24 18:11:00,53.6,51.9,30.17,SSE,162,1.0,3.0,94,0.00,,,0.01,Wunderground v.1.15,2013-01-25 02:11:00,
2013-01-24 18:12:00,53.6,51.9,30.17,SSE,162,0.0,3.0,94,0.00,,,0.01,Wunderground v.1.15,2013-01-25 02:12:00,
2013-01-24 18:13:00,53.5,51.8,30.18,SSE,162,0.0,3.0,94,0.00,,,0.01,Wunderground v.1.15,2013-01-25 02:13:00,
2013-01-24 18:18:00,53.5,51.8,30.18,SSE,162,0.0,3.0,94,0.00,,,0.01,Wunderground v.1.15,2013-01-25 02:18:00,
2013-01-24 18:19:00,53.5,51.8,30.18,SSE,162,0.0,3.0,94,0.00,,,0.01,Wunderground v.1.15,2013-01-25 02:19:00,
2013-01-24 18:21:00,53.4,51.7,30.18,SSE,162,0.0,3.0,94,0.00,,,0.01,Wunderground v.1.15,2013-01-25 02:21:00,
2013-01-24 18:27:00,53.5,52.1,30.18,SSE,162,0.0,3.0,95,0.00,,,0.01,Wunderground v.1.15,2013-01-25 02:27:00,
2013-01-24 18:28:00,53.5,52.1,30.18,SSE,162,0.0,3.0,95,0.00,,,0.01,Wunderground v.1.15,2013-01-25 02:28:00,
2013-01-24 18:32:00,53.5,52.1,30.18,SSE,162,0.0,3.0,95,0.00,,,0.01,Wunderground v.1.15,2013-01-25 02:32:00,
2013-01-24 18:34:00,53.6,52.2,30.18,SSE,162,1.0,3.0,95,0.00,,,0.01,Wunderground v.1.15,2013-01-25 02:34:00,
2013-01-24 18:38:00,53.5,52.1,30.18,SSE,162,1.0,3.0,95,0.00,,,0.01,Wunderground v.1.15,2013-01-25 02:38:00,
2013-01-24 18:39:00,53.5,52.1,30.18,SSE,162,1.0,3.0,95,0.00,,,0.01,Wunderground v.1.15,2013-01-25 02:39:00,
2013-01-24 18:40:00,53.5,52.1,30.18,SSE,162,0.0,3.0,95,0.00,,,0.01,Wunderground v.1.15,2013-01-25 02:40:00,
2013-01-24 18:44:00,53.5,52.1,30.18,SSE,162,0.0,3.0,95,0.00,,,0.01,Wunderground v.1.15,2013-01-25 02:44:00,
2013-01-24 18:46:00,53.5,52.1,30.18,SSE,162,0.0,3.0,95,0.00,,,0.01,Wunderground v.1.15,2013-01-25 02:46:00,
2013-01-24 18:47:00,53.5,52.1,30.18,SSE,162,0.0,3.0,95,0.00,,,0.01,Wunderground v.1.15,2013-01-25 02:47:00,
2013-01-24 18:51:00,53.5,52.4,30.18,SSE,162,0.0,3.0,96,0.00,,,0.01,Wunderground v.1.15,2013-01-25 02:51:00,
2013-01-24 18:53:00,53.4,52.0,30.18,SSE,162,0.0,3.0,95,0.00,,,0.01,Wunderground v.1.15,2013-01-25 02:53:00,
2013-01-24 18:54:00,53.4,52.0,30.18,SSE,162,0.0,3.0,95,0.00,,,0.01,Wunderground v.1.15,2013-01-25 02:54:00,
2013-01-24 18:59:00,53.1,51.7,30.18,SSE,162,0.0,3.0,95,0.00,,,0.01,Wunderground v.1.15,2013-01-25 02:59:00,
2013-01-24 19:00:00,53.0,51.6,30.18,SSE,162,0.0,3.0,95,0.00,,,0.01,Wunderground v.1.15,2013-01-25 03:00:00,
2013-01-24 19:01:00,52.9,51.5,30.18,SSE,162,0.0,3.0,95,0.00,,,0.01,Wunderground v.1.15,2013-01-25 03:01:00,
2013-01-24 19:07:00,52.5,51.1,30.19,SSE,162,0.0,3.0,95,0.00,,,0.01,Wunderground v.1.15,2013-01-25 03:07:00,
2013-01-24 19:08:00,52.4,51.0,30.18,SSE,162,0.0,3.0,95,0.00,,,0.01,Wunderground v.1.15,2013-01-25 03:08:00,
2013-01-24 19:13:00,52.3,51.2,30.18,SSE,162,0.0,3.0,96,0.00,,,0.01,Wunderground v.1.15,2013-01-25 03:13:00,
2013-01-24 19:16:00,52.3,51.2,30.18,SSE,162,0.0,3.0,96,0.00,,,0.01,Wunderground v.1.15,2013-01-25 03:16:00,
2013-01-24 19:17:00,52.3,51.2,30.18,SSE,162,0.0,3.0,96,0.00,,,0.01,Wunderground v.1.15,2013-01-25 03:17:00,
2013-01-24 19:22:00,52.3,51.2,30.18,SSE,162,0.0,3.0,96,0.00,,,0.01,Wunderground v.1.15,2013-01-25 03:22:00,
2013-01-24 19:23:00,52.3,51.2,30.18,SSE,162,0.0,3.0,96,0.00,,,0.01,Wunderground v.1.15,2013-01-25 03:23:00,
2013-01-24 19:24:00,52.3,51.2,30.18,SSE,162,0.0,3.0,96,0.00,,,0.01,Wunderground v.1.15,2013-01-25 03:24:00,
2013-01-24 19:29:00,52.3,51.2,30.18,SSE,162,0.0,3.0,96,0.00,,,0.01,Wunderground v.1.15,2013-01-25 03:29:00,
2013-01-24 19:31:00,52.3,51.2,30.18,SSE,162,0.0,3.0,96,0.00,,,0.01,Wunderground v.1.15,2013-01-25 03:31:00,
2013-01-24 19:32:00,52.3,51.2,30.19,SSE,162,0.0,3.0,96,0.00,,,0.01,Wunderground v.1.15,2013-01-25 03:32:00,
2013-01-24 19:34:00,52.3,51.2,30.19,SSE,163,0.0,3.0,96,0.00,,,0.01,Wunderground v.1.15,2013-01-25 03:34:00,
2013-01-24 19:37:00,52.3,51.2,30.19,SSE,162,0.0,3.0,96,0.00,,,0.01,Wunderground v.1.15,2013-01-25 03:37:00,
2013-01-24 19:39:00,52.3,51.2,30.19,SSE,162,0.0,3.0,96,0.00,,,0.01,Wunderground v.1.15,2013-01-25 03:39:00,
2013-01-24 19:43:00,52.3,51.2,30.19,SSE,162,0.0,3.0,96,0.00,,,0.01,Wunderground v.1.15,2013-01-25 03:43:00,
2013-01-24 19:47:00,52.3,51.2,30.19,SSE,162,0.0,3.0,96,0.00,,,0.01,Wunderground v.1.15,2013-01-25 03:47:00,
2013-01-24 19:49:00,52.3,51.2,30.19,SSE,162,0.0,3.0,96,0.00,,,0.01,Wunderground v.1.15,2013-01-25 03:49:00,
2013-01-24 19:50:00,52.3,51.2,30.19,SSE,162,0.0,3.0,96,0.00,,,0.01,Wunderground v.1.15,2013-01-25 03:50:00,
2013-01-24 19:55:00,52.2,51.1,30.19,SSE,162,0.0,3.0,96,0.00,,,0.01,Wunderground v.1.15,2013-01-25 03:55:00,
2013-01-24 19:56:00,52.2,51.1,30.19,SSE,162,0.0,3.0,96,0.00,,,0.01,Wunderground v.1.15,2013-01-25 03:56:00,
2013-01-24 19:59:00,52.2,51.1,30.19,SSE,162,0.0,3.0,96,0.00,,,0.01,Wunderground v.1.15,2013-01-25 03:59:00,
2013-01-24 20:02:00,52.2,51.1,30.19,SSE,162,0.0,3.0,96,0.00,,,0.01,Wunderground v.1.15,2013-01-25 04:02:00,
2013-01-24 20:03:00,52.2,51.1,30.19,SSE,162,0.0,3.0,96,0.00,,,0.01,Wunderground v.1.15,2013-01-25 04:03:00,
2013-01-24 20:08:00,52.1,51.0,30.19,SSE,162,0.0,3.0,96,0.00,,,0.01,Wunderground v.1.15,2013-01-25 04:08:00,
2013-01-24 20:09:00,52.2,51.4,30.19,SSE,162,0.0,3.0,97,0.00,,,0.01,Wunderground v.1.15,2013-01-25 04:09:00,
2013-01-24 20:10:00,52.1,51.3,30.19,SSE,162,0.0,3.0,97,0.00,,,0.01,Wunderground v.1.15,2013-01-25 04:10:00,
2013-01-24 20:16:00,52.1,51.3,30.19,SSE,162,0.0,3.0,97,0.00,,,0.01,Wunderground v.1.15,2013-01-25 04:16:00,
2013-01-24 20:17:00,52.1,51.3,30.19,SSE,162,0.0,3.0,97,0.00,,,0.01,Wunderground v.1.15,2013-01-25 04:17:00,
2013-01-24 20:21:00,52.2,51.4,30.20,SSE,162,0.0,3.0,97,0.00,,,0.01,Wunderground v.1.15,2013-01-25 04:21:00,
2013-01-24 20:23:00,52.1,51.3,30.20,SSE,162,0.0,3.0,97,0.00,,,0.01,Wunderground v.1.15,2013-01-25 04:23:00,
2013-01-24 20:24:00,52.2,51.4,30.20,SSE,162,0.0,3.0,97,0.00,,,0.01,Wunderground v.1.15,2013-01-25 04:24:00,
2013-01-24 20:29:00,52.2,51.4,30.20,SSE,162,0.0,3.0,97,0.00,,,0.01,Wunderground v.1.15,2013-01-25 04:29:00,
2013-01-24 20:33:00,52.2,51.4,30.20,SSE,162,0.0,3.0,97,0.00,,,0.01,Wunderground v.1.15,2013-01-25 04:33:00,
2013-01-24 20:34:00,52.2,51.4,30.20,SSE,162,0.0,3.0,97,0.00,,,0.01,Wunderground v.1.15,2013-01-25 04:34:00,
2013-01-24 20:37:00,52.1,51.3,30.20,SSE,162,0.0,3.0,97,0.00,,,0.01,Wunderground v.1.15,2013-01-25 04:37:00,
2013-01-24 20:38:00,52.1,51.3,30.20,SSE,162,0.0,3.0,97,0.00,,,0.01,Wunderground v.1.15,2013-01-25 04:38:00,
2013-01-24 20:42:00,52.2,51.4,30.20,SSE,162,0.0,3.0,97,0.00,,,0.01,Wunderground v.1.15,2013-01-25 04:42:00,
2013-01-24 20:45:00,52.1,51.3,30.19,SSE,162,0.0,3.0,97,0.00,,,0.01,Wunderground v.1.15,2013-01-25 04:45:00,
2013-01-24 20:47:00,52.2,51.4,30.20,SSE,162,0.0,3.0,97,0.00,,,0.01,Wunderground v.1.15,2013-01-25 04:47:00,
2013-01-24 20:48:00,52.1,51.3,30.20,SSE,162,0.0,3.0,97,0.00,,,0.01,Wunderground v.1.15,2013-01-25 04:48:00,
2013-01-24 20:53:00,52.1,51.3,30.20,SSE,162,0.0,3.0,97,0.00,,,0.01,Wunderground v.1.15,2013-01-25 04:53:00,
2013-01-24 20:55:00,52.1,51.3,30.20,SSE,162,0.0,3.0,97,0.00,,,0.01,Wunderground v.1.15,2013-01-25 04:55:00,
2013-01-24 20:58:00,52.0,51.2,30.20,SSE,162,0.0,3.0,97,0.00,,,0.01,Wunderground v.1.15,2013-01-25 04:58:00,
2013-01-24 21:01:00,52.0,51.2,30.20,SSE,162,0.0,3.0,97,0.00,,,0.01,Wunderground v.1.15,2013-01-25 05:01:00,
2013-01-24 21:03:00,51.9,51.1,30.20,SSE,162,0.0,3.0,97,0.00,,,0.01,Wunderground v.1.15,2013-01-25 05:03:00,
2013-01-24 21:05:00,51.9,51.1,30.20,SSE,162,0.0,3.0,97,0.00,,,0.01,Wunderground v.1.15,2013-01-25 05:05:00,
2013-01-24 21:06:00,51.9,51.1,30.20,SSE,162,0.0,3.0,97,0.00,,,0.01,Wunderground v.1.15,2013-01-25 05:06:00,
2013-01-24 21:07:00,51.9,51.1,30.20,SSE,163,0.0,3.0,97,0.00,,,0.01,Wunderground v.1.15,2013-01-25 05:07:00,
2013-01-24 21:11:00,51.8,51.0,30.20,SSE,162,0.0,3.0,97,0.00,,,0.01,Wunderground v.1.15,2013-01-25 05:11:00,
2013-01-24 21:12:00,51.8,51.0,30.20,SSE,162,0.0,3.0,97,0.00,,,0.01,Wunderground v.1.15,2013-01-25 05:12:00,
2013-01-24 21:14:00,51.8,51.0,30.20,SSE,162,0.0,3.0,97,0.00,,,0.01,Wunderground v.1.15,2013-01-25 05:14:00,
2013-01-24 21:16:00,51.8,51.0,30.20,SSE,162,0.0,3.0,97,0.00,,,0.01,Wunderground v.1.15,2013-01-25 05:16:00,
2013-01-24 21:18:00,51.7,50.9,30.20,SSE,162,0.0,3.0,97,0.00,,,0.01,Wunderground v.1.15,2013-01-25 05:18:00,
2013-01-24 21:21:00,51.7,50.9,30.20,SSE,162,0.0,3.0,97,0.00,,,0.01,Wunderground v.1.15,2013-01-25 05:21:00,
2013-01-24 21:22:00,51.7,50.9,30.20,SSE,162,0.0,3.0,97,0.00,,,0.01,Wunderground v.1.15,2013-01-25 05:22:00,
2013-01-24 21:24:00,51.7,50.9,30.20,SSE,162,0.0,3.0,97,0.00,,,0.01,Wunderground v.1.15,2013-01-25 05:24:00,
2013-01-24 21:25:00,51.7,50.9,30.20,SSE,162,0.0,3.0,97,0.00,,,0.01,Wunderground v.1.15,2013-01-25 05:25:00,
2013-01-24 21:27:00,51.8,51.0,30.20,SSE,162,0.0,3.0,97,0.00,,,0.01,Wunderground v.1.15,2013-01-25 05:27:00,
2013-01-24 21:28:00,51.8,51.0,30.20,SSE,162,0.0,3.0,97,0.00,,,0.01,Wunderground v.1.15,2013-01-25 05:28:00,
2013-01-24 21:31:00,51.9,51.1,30.20,SSE,162,0.0,3.0,97,0.00,,,0.01,Wunderground v.1.15,2013-01-25 05:31:00,
2013-01-24 21:33:00,51.9,51.1,30.20,SSE,162,0.0,3.0,97,0.00,,,0.01,Wunderground v.1.15,2013-01-25 05:33:00,
2013-01-24 21:35:00,51.8,51.0,30.20,SSE,162,0.0,3.0,97,0.00,,,0.01,Wunderground v.1.15,2013-01-25 05:35:00,
2013-01-24 21:36:00,51.8,51.0,30.20,SSE,162,0.0,3.0,97,0.00,,,0.01,Wunderground v.1.15,2013-01-25 05:36:00,
2013-01-24 21:39:00,51.8,51.0,30.20,SSE,162,0.0,3.0,97,0.00,,,0.01,Wunderground v.1.15,2013-01-25 05:39:00,
2013-01-24 21:41:00,51.9,51.1,30.20,SSE,162,0.0,3.0,97,0.00,,,0.01,Wunderground v.1.15,2013-01-25 05:41:00,
2013-01-24 21:42:00,51.9,51.1,30.20,SSE,162,0.0,3.0,97,0.00,,,0.01,Wunderground v.1.15,2013-01-25 05:42:00,
2013-01-24 21:43:00,51.8,51.0,30.20,SSE,162,0.0,3.0,97,0.00,,,0.01,Wunderground v.1.15,2013-01-25 05:43:00,
2013-01-24 21:48:00,51.7,50.9,30.21,SSE,162,0.0,3.0,97,0.00,,,0.01,Wunderground v.1.15,2013-01-25 05:48:00,
2013-01-24 21:50:00,51.7,50.9,30.21,SSE,162,0.0,3.0,97,0.00,,,0.01,Wunderground v.1.15,2013-01-25 05:50:00,
2013-01-24 21:51:00,51.7,50.9,30.21,SSE,162,0.0,3.0,97,0.00,,,0.01,Wunderground v.1.15,2013-01-25 05:51:00,
2013-01-24 21:55:00,51.7,50.9,30.21,SSE,162,0.0,3.0,97,0.00,,,0.01,Wunderground v.1.15,2013-01-25 05:55:00,
2013-01-24 21:56:00,51.7,50.9,30.21,SSE,162,0.0,3.0,97,0.00,,,0.01,Wunderground v.1.15,2013-01-25 05:56:00,
2013-01-24 21:58:00,51.6,50.8,30.21,SSE,162,0.0,3.0,97,0.00,,,0.01,Wunderground v.1.15,2013-01-25 05:58:00,
2013-01-24 22:00:00,51.7,50.9,30.21,SSE,162,0.0,3.0,97,0.00,,,0.01,Wunderground v.1.15,2013-01-25 06:00:00,
2013-01-24 22:03:00,51.7,50.9,30.21,SSE,162,0.0,3.0,97,0.00,,,0.01,Wunderground v.1.15,2013-01-25 06:03:00,
2013-01-24 22:05:00,51.8,51.3,30.21,SSE,162,0.0,3.0,98,0.00,,,0.01,Wunderground v.1.15,2013-01-25 06:05:00,
2013-01-24 22:10:00,51.9,51.1,30.20,SSE,162,0.0,3.0,97,0.00,,,0.01,Wunderground v.1.15,2013-01-25 06:10:00,
2013-01-24 22:16:00,51.9,51.1,30.21,SSE,162,0.0,3.0,97,0.00,,,0.01,Wunderground v.1.15,2013-01-25 06:16:00,
2013-01-24 22:17:00,51.9,51.1,30.20,SSE,162,0.0,3.0,97,0.00,,,0.01,Wunderground v.1.15,2013-01-25 06:17:00,
2013-01-24 22:18:00,52.0,51.2,30.20,SSE,162,0.0,3.0,97,0.00,,,0.01,Wunderground v.1.15,2013-01-25 06:18:00,
2013-01-24 22:22:00,51.8,51.0,30.21,SSE,162,0.0,3.0,97,0.00,,,0.01,Wunderground v.1.15,2013-01-25 06:22:00,
2013-01-24 22:23:00,51.8,51.0,30.21,SSE,162,0.0,3.0,97,0.00,,,0.01,Wunderground v.1.15,2013-01-25 06:23:00,
2013-01-24 22:27:00,51.7,50.9,30.21,SSE,162,0.0,3.0,97,0.00,,,0.01,Wunderground v.1.15,2013-01-25 06:27:00,
2013-01-24 22:30:00,51.6,51.1,30.21,SSE,162,0.0,3.0,98,0.00,,,0.01,Wunderground v.1.15,2013-01-25 06:30:00,
2013-01-24 22:34:00,51.6,51.1,30.21,SSE,162,0.0,3.0,98,0.00,,,0.01,Wunderground v.1.15,2013-01-25 06:34:00,
2013-01-24 22:37:00,51.6,51.1,30.21,SSE,162,0.0,3.0,98,0.00,,,0.01,Wunderground v.1.15,2013-01-25 06:37:00,
2013-01-24 22:40:00,51.5,50.7,30.21,SSE,163,0.0,3.0,97,0.00,,,0.01,Wunderground v.1.15,2013-01-25 06:40:00,
2013-01-24 22:44:00,51.4,50.6,30.21,SSE,162,0.0,3.0,97,0.00,,,0.01,Wunderground v.1.15,2013-01-25 06:44:00,
2013-01-24 22:47:00,51.4,50.6,30.21,SSE,162,0.0,3.0,97,0.00,,,0.01,Wunderground v.1.15,2013-01-25 06:47:00,
2013-01-24 22:50:00,51.4,50.9,30.21,SSE,163,0.0,3.0,98,0.00,,,0.01,Wunderground v.1.15,2013-01-25 06:50:00,
2013-01-24 22:52:00,51.4,50.9,30.21,SSE,162,0.0,3.0,98,0.00,,,0.01,Wunderground v.1.15,2013-01-25 06:52:00,
2013-01-24 22:53:00,51.4,50.9,30.21,SSE,162,0.0,3.0,98,0.00,,,0.01,Wunderground v.1.15,2013-01-25 06:53:00,
2013-01-24 22:54:00,51.5,51.0,30.21,SSE,162,0.0,3.0,98,0.00,,,0.01,Wunderground v.1.15,2013-01-25 06:54:00,
2013-01-24 22:57:00,51.4,50.9,30.21,SSE,162,0.0,3.0,98,0.00,,,0.01,Wunderground v.1.15,2013-01-25 06:57:00,
2013-01-24 23:01:00,51.5,51.0,30.21,SSE,162,0.0,2.0,98,0.00,,,0.01,Wunderground v.1.15,2013-01-25 07:01:00,
2013-01-24 23:07:00,51.6,51.1,30.21,SSE,162,0.0,2.0,98,0.00,,,0.00,Wunderground v.1.15,2013-01-25 07:07:00,
2013-01-24 23:12:00,51.7,51.2,30.21,SSE,162,0.0,2.0,98,0.00,,,0.00,Wunderground v.1.15,2013-01-25 07:12:00,
2013-01-24 23:14:00,51.7,51.2,30.21,SSE,162,0.0,2.0,98,0.00,,,0.00,Wunderground v.1.15,2013-01-25 07:14:00,
2013-01-24 23:18:00,51.7,51.2,30.21,SSE,162,0.0,2.0,98,0.00,,,0.00,Wunderground v.1.15,2013-01-25 07:18:00,
2013-01-24 23:20:00,51.7,51.2,30.21,SSE,162,0.0,2.0,98,0.00,,,0.00,Wunderground v.1.15,2013-01-25 07:20:00,
2013-01-24 23:25:00,51.7,51.2,30.22,SSE,162,0.0,2.0,98,0.00,,,0.00,Wunderground v.1.15,2013-01-25 07:25:00,
2013-01-24 23:27:00,51.7,51.2,30.21,SSE,162,0.0,2.0,98,0.00,,,0.00,Wunderground v.1.15,2013-01-25 07:27:00,
2013-01-24 23:31:00,51.7,51.2,30.21,SSE,162,1.0,2.0,98,0.00,,,0.00,Wunderground v.1.15,2013-01-25 07:31:00,
2013-01-24 23:37:00,51.6,51.1,30.21,SSE,162,0.0,2.0,98,0.00,,,0.00,Wunderground v.1.15,2013-01-25 07:37:00,
2013-01-24 23:38:00,51.6,51.1,30.21,SSE,162,0.0,2.0,98,0.00,,,0.00,Wunderground v.1.15,2013-01-25 07:38:00,
2013-01-24 23:40:00,51.6,51.1,30.21,SSE,162,0.0,2.0,98,0.00,,,0.00,Wunderground v.1.15,2013-01-25 07:40:00,
2013-01-24 23:42:00,51.5,51.0,30.21,SSE,162,0.0,2.0,98,0.00,,,0.00,Wunderground v.1.15,2013-01-25 07:42:00,
2013-01-24 23:43:00,51.5,51.0,30.21,SSE,162,0.0,2.0,98,0.00,,,0.00,Wunderground v.1.15,2013-01-25 07:43:00,
2013-01-24 23:48:00,51.4,50.9,30.21,SSE,162,0.0,2.0,98,0.00,,,0.00,Wunderground v.1.15,2013-01-25 07:48:00,
2013-01-24 23:50:00,51.2,50.4,30.21,SSE,162,0.0,2.0,97,0.00,,,0.00,Wunderground v.1.15,2013-01-25 07:50:00,
2013-01-24 23:54:00,50.9,50.1,30.21,SSE,162,1.0,3.0,97,0.00,,,0.00,Wunderground v.1.15,2013-01-25 07:54:00,
2013-01-24 23:58:00,50.7,49.9,30.21,SSE,162,2.0,3.0,97,0.00,,,0.00,Wunderground v.1.15,2013-01-25 07:58:00,